Location: Kaiser
(34.0939°N, 117.4889°W)
Time: 03:20:17
(UTC+00:00)

Meteor 1-31 Rocket - Pass Details

Date: 29 October 2020
Orbit: 521 x 546 km, 97.6° (Epoch: 26 November)

Event Time Altitude Azimuth Distance (km) Brightness Sun altitude
Rises 12:07:16 0° 21° (NNE) 2,717 6.6 -25.4°
Reaches altitude 10° 12:09:31 10° 30° (NNE) 1,818 5.8 -24.9°
Maximum altitude 12:13:11 37° 98° (E) 851 4.3 -24.2°
Drops below altitude 10° 12:16:49 10° 167° (SSE) 1,798 5.6 -23.4°
Sets 12:19:01 0° 176° (S) 2,682 6.4 -23.0°
